This is the latest recevied weather packets stored in our database for station/object N5CNB-2. If no packets are shown the sender has not sent any weather packets the latest 10 day(s).
| Time | Temp. | Humidity | Pressure | Rain* | Wind** | Luminosity | Snow |
|---|---|---|---|---|---|---|---|
| 1777778157 | 14.44° C | 86% | 1021 hPa | 0 mm | - | - | - |
| 1777777264 | 14.44° C | 85% | 1020.6 hPa | 0 mm | - | - | - |
| 1777776378 | 15° C | 84% | 1020.4 hPa | 0 mm | - | - | - |
| 1777775453 | 15° C | 83% | 1020.4 hPa | 0 mm | - | - | - |
| 1777774558 | 15.56° C | 80% | 1020.4 hPa | 0 mm | - | - | - |
| 1777773653 | 16.11° C | 79% | 1020.1 hPa | 0 mm | - | - | - |
| 1777772750 | 16.67° C | 76% | 1020 hPa | 0 mm | - | - | - |
| 1777771854 | 17.78° C | 74% | 1019.9 hPa | 0 mm | - | - | - |
| 1777770956 | 18.33° C | 72% | 1019.8 hPa | 0 mm | - | - | - |
| 1777770054 | 20° C | 65% | 1019.6 hPa | 0 mm | - | - | - |
| 1777769152 | 21.67° C | 62% | 1019.4 hPa | 0 mm | - | - | - |
| 1777768253 | 21.67° C | 55% | 1019.4 hPa | 0 mm | - | - | - |
| 1777767368 | 22.22° C | 54% | 1019.3 hPa | 0 mm | - | - | - |
| 1777766470 | 22.22° C | 52% | 1019.3 hPa | 0 mm | - | - | - |
| 1777765572 | 22.78° C | 54% | 1019.2 hPa | 0 mm | - | - | - |
| 1777764668 | 22.78° C | 50% | 1019.1 hPa | 0 mm | - | - | - |
| 1777763765 | 22.78° C | 51% | 1018.9 hPa | 0 mm | - | - | - |
| 1777762852 | 22.78° C | 51% | 1019 hPa | 0 mm | - | - | - |
| 1777761952 | 22.78° C | 50% | 1018.9 hPa | 0 mm | - | - | - |
| 1777761052 | 22.78° C | 50% | 1018.8 hPa | 0 mm | - | - | - |
| 1777760162 | 22.78° C | 53% | 1018.8 hPa | 0 mm | - | - | - |
| 1777759256 | 22.78° C | 53% | 1018.9 hPa | 0 mm | - | - | - |
| 1777758364 | 22.78° C | 53% | 1019.1 hPa | 0 mm | - | - | - |
| 1777757454 | 22.22° C | 51% | 1019.2 hPa | 0 mm | - | - | - |
| 1777756557 | 22.78° C | 50% | 1019.4 hPa | 0 mm | - | - | - |
* Rain latest hour (hover to see other rain measurements)
** Current wind speed in m/s (hover to see current wind gust speed)